Starlink 32875

operational
NORAD ID: 62951 Int'l Des: 2025-029 Owner: SPXS Country: US Constellation: starlink
LEOCIRCULAR

About Starlink 32875

Description loading...

Live Position

Loading 3D Globe...

Upcoming Passes

Altitude History

Altitude vs Time

uPlot chart will show altitude changes over time

Two-Line Element Set

1 62951U 25029D 25306.15990859 .00030348 00000-0 10329-2 0 9998
2 62951 53.1586 102.5894 0001783 76.9550 283.1650 15.30191094 41837
Epoch: Nov 2, 2025 • Age: 34 hours

Current Status

Altitude 494.2 km
Velocity 7.62 km/s
Sub-Earth Point -51.79°S, 95.92°E
Launch Date Feb 11, 2025
Age 0.7 years
Type internet

Technical Details

Classification Payload
Mass 730.00 kg
Dry Mass 700.00 kg
Total Mass 730.00 kg
Length 0.30 m
Diameter 4.10 m
Span 29.00 m
Shape Box + pan
Manufacturer SPXS
Bus Type Starlink V2M
Phase Status In Orbit
Owner/State SPXS/US

Large Constellations

Loading constellations...